�������l�o���
Date,Time,MP-1(��Sv/h),MP-2(��Sv/h),MP-3(��Sv/h),MP-4(��Sv/h),MP-5(��Sv/h),MP-6(��Sv/h),MP-7(��Sv/h),MP-8(��Sv/h),����,����(m/s),���J
2023/08/01,00:00,0.546,0.824,0.501,1.002,0.737,0.327,0.581,0.540,�k��,4.1,��
2023/08/01,00:10,0.545,0.823,0.503,1.000,0.738,0.328,0.581,0.540,�k��,3.9,��
2023/08/01,00:20,0.545,0.823,0.502,1.002,0.737,0.327,0.582,0.539,�k��,4.7,��
2023/08/01,00:30,0.543,0.823,0.503,1.003,0.736,0.326,0.582,0.541,�k��,4.6,��
2023/08/01,00:40,0.545,0.823,0.503,1.003,0.737,0.328,0.580,0.541,�k��,3.7,��
2023/08/01,00:50,0.545,0.823,0.501,1.001,0.738,0.327,0.581,0.540,�k��,3.3,��
2023/08/01,01:00,0.543,0.822,0.502,1.003,0.735,0.326,0.582,0.540,�k��,3.4,��
2023/08/01,01:10,0.544,0.822,0.501,1.002,0.734,0.328,0.581,0.539,�k��,3.0,��
2023/08/01,01:20,0.542,0.822,0.502,1.002,0.736,0.326,0.580,0.539,�k�k��,2.3,��
2023/08/01,01:30,0.545,0.824,0.502,1.003,0.736,0.326,0.581,0.540,�k�k��,1.4,��
2023/08/01,01:40,0.543,0.824,0.502,1.003,0.735,0.327,0.581,0.540,���쐼,0.6,��
2023/08/01,01:50,0.544,0.824,0.502,1.001,0.735,0.327,0.582,0.539,��쐼,2.8,��
2023/08/01,02:00,0.544,0.822,0.502,1.002,0.737,0.328,0.582,0.540,�쐼,3.4,��
2023/08/01,02:10,0.545,0.822,0.503,1.002,0.736,0.327,0.581,0.541,��쐼,3.0,��
2023/08/01,02:20,0.545,0.823,0.504,1.002,0.738,0.329,0.582,0.539,��,2.8,��
2023/08/01,02:30,0.544,0.824,0.504,1.002,0.736,0.328,0.580,0.539,��쐼,2.6,��
2023/08/01,02:40,0.545,0.823,0.503,1.003,0.740,0.327,0.581,0.541,��쐼,3.1,��
2023/08/01,02:50,0.547,0.822,0.503,1.002,0.737,0.327,0.581,0.539,��쐼,2.9,��
2023/08/01,03:00,0.546,0.823,0.503,1.004,0.738,0.328,0.581,0.540,��,2.6,��
2023/08/01,03:10,0.546,0.823,0.503,1.002,0.738,0.328,0.581,0.540,��,2.0,��
2023/08/01,03:20,0.545,0.825,0.503,1.003,0.737,0.327,0.580,0.540,��,2.6,��
2023/08/01,03:30,0.545,0.823,0.502,1.002,0.735,0.327,0.582,0.541,��쓌,1.5,��
2023/08/01,03:40,0.544,0.825,0.502,1.001,0.739,0.328,0.581,0.540,��,1.1,��
2023/08/01,03:50,0.543,0.824,0.502,1.004,0.735,0.329,0.581,0.540,��쐼,0.6,��
2023/08/01,04:00,0.545,0.824,0.501,1.003,0.738,0.328,0.581,0.541,���쐼,1.5,��
2023/08/01,04:10,0.544,0.824,0.502,1.004,0.737,0.327,0.580,0.541,��,2.2,�L
2023/08/01,04:20,0.545,0.823,0.504,1.000,0.737,0.326,0.580,0.540,���쐼,1.5,�L
2023/08/01,04:30,0.545,0.824,0.501,1.003,0.737,0.326,0.581,0.540,�쐼,1.1,��
2023/08/01,04:40,0.544,0.825,0.501,1.002,0.736,0.327,0.582,0.541,��쐼,2.3,��
2023/08/01,04:50,0.544,0.822,0.503,1.002,0.736,0.327,0.581,0.540,��쐼,3.5,��
2023/08/01,05:00,0.544,0.824,0.502,1.004,0.735,0.328,0.581,0.540,��,3.4,��
2023/08/01,05:10,0.544,0.824,0.503,1.003,0.737,0.327,0.582,0.540,��,1.4,�L
2023/08/01,05:20,0.544,0.823,0.502,1.002,0.736,0.327,0.581,0.539,��,1.2,�L
2023/08/01,05:30,0.545,0.823,0.503,1.004,0.736,0.328,0.580,0.539,��쓌,1.9,��
2023/08/01,05:40,0.547,0.824,0.503,1.004,0.738,0.326,0.582,0.540,�k�k��,2.8,��
2023/08/01,05:50,0.545,0.823,0.503,1.002,0.737,0.327,0.581,0.540,�k��,9.1,�L
2023/08/01,06:00,0.543,0.822,0.501,0.999,0.735,0.326,0.581,0.539,�k�k��,7.8,�L
2023/08/01,06:10,0.543,0.822,0.502,1.002,0.735,0.326,0.579,0.538,�k��,2.3,�L
2023/08/01,06:20,0.544,0.823,0.502,1.001,0.738,0.327,0.581,0.540,��,0.8,�L
2023/08/01,06:30,0.542,0.823,0.502,1.002,0.737,0.325,0.581,0.539,��,2.3,�L
2023/08/01,06:40,0.539,0.812,0.497,0.994,0.716,0.320,0.570,0.532,�쐼,9.4,�L
2023/08/01,06:50,0.534,0.803,0.491,0.985,0.715,0.319,0.563,0.503,���쐼,8.1,�L
2023/08/01,07:00,0.532,0.805,0.492,0.988,0.714,0.319,0.568,0.513,�쐼,8.5,�L
2023/08/01,07:10,0.532,0.801,0.493,0.986,0.712,0.320,0.569,0.524,��쐼,8.9,�L
2023/08/01,07:20,0.532,0.802,0.494,0.985,0.710,0.320,0.567,0.527,�쐼,7.2,�L
2023/08/01,07:30,0.534,0.801,0.493,0.984,0.711,0.322,0.568,0.529,��,6.6,�L
2023/08/01,07:40,0.534,0.799,0.494,0.984,0.712,0.321,0.569,0.530,��쐼,1.7,�L
2023/08/01,07:50,0.534,0.799,0.492,0.982,0.711,0.321,0.568,0.527,���쐼,3.2,�L
2023/08/01,08:00,0.533,0.797,0.493,0.982,0.711,0.321,0.565,0.529,�쐼,2.8,�L
2023/08/01,08:10,0.534,0.797,0.492,0.983,0.709,0.321,0.566,0.528,���k��,3.2,�L
2023/08/01,08:20,0.534,0.798,0.493,0.981,0.711,0.323,0.566,0.528,�k�k��,3.4,�L
2023/08/01,08:30,0.533,0.799,0.493,0.981,0.709,0.320,0.566,0.528,�k��,2.5,�L
2023/08/01,08:40,0.535,0.798,0.493,0.983,0.710,0.322,0.567,0.528,�k��,1.7,�L
2023/08/01,08:50,0.531,0.796,0.492,0.982,0.710,0.320,0.565,0.530,�k�k��,1.2,�L
2023/08/01,09:00,0.530,0.796,0.492,0.980,0.710,0.321,0.567,0.528,�k��,3.7,��
2023/08/01,09:10,0.531,0.796,0.491,0.980,0.709,0.321,0.566,0.529,��,5.3,�L
2023/08/01,09:20,0.529,0.790,0.490,0.979,0.706,0.318,0.565,0.526,��,2.6,�L
2023/08/01,09:30,0.527,0.786,0.488,0.978,0.703,0.319,0.564,0.528,��쓌,1.1,�L
2023/08/01,09:40,0.526,0.786,0.488,0.977,0.704,0.320,0.564,0.527,�쓌,3.0,�L
2023/08/01,09:50,0.528,0.787,0.488,0.977,0.705,0.320,0.565,0.529,��,3.4,�L
2023/08/01,10:00,0.526,0.789,0.486,0.975,0.705,0.320,0.567,0.529,��쐼,3.4,��
2023/08/01,10:10,0.527,0.787,0.488,0.975,0.705,0.320,0.566,0.528,��쐼,3.6,��
2023/08/01,10:20,0.525,0.788,0.488,0.973,0.704,0.317,0.565,0.528,��쐼,3.1,��
2023/08/01,10:30,0.526,0.788,0.489,0.975,0.705,0.317,0.563,0.529,��쐼,3.5,��
2023/08/01,10:40,0.527,0.788,0.487,0.973,0.702,0.317,0.566,0.529,�쐼,2.5,��
2023/08/01,10:50,0.526,0.791,0.486,0.974,0.704,0.317,0.565,0.528,�쐼,2.0,��
2023/08/01,11:00,0.526,0.788,0.486,0.974,0.702,0.317,0.565,0.527,��쐼,1.2,��
2023/08/01,11:10,0.524,0.788,0.486,0.973,0.704,0.318,0.566,0.526,��쓌,1.1,��
2023/08/01,11:20,0.526,0.791,0.488,0.972,0.704,0.316,0.567,0.528,���k��,1.5,��
2023/08/01,11:30,0.526,0.789,0.484,0.972,0.704,0.316,0.566,0.528,�k�k��,1.7,��
2023/08/01,11:40,0.527,0.789,0.485,0.971,0.704,0.318,0.567,0.529,�k��,1.4,��
2023/08/01,11:50,0.527,0.793,0.485,0.971,0.706,0.316,0.567,0.530,�k�k��,2.0,��
2023/08/01,12:00,0.528,0.792,0.485,0.972,0.704,0.317,0.567,0.530,�k��,2.0,��
2023/08/01,12:10,0.527,0.792,0.485,0.972,0.705,0.316,0.567,0.528,�k�k��,1.4,��
2023/08/01,12:20,0.527,0.795,0.487,0.972,0.706,0.319,0.568,0.528,���쓌,2.2,��
2023/08/01,12:30,0.527,0.796,0.487,0.972,0.705,0.316,0.568,0.528,�쓌,3.3,��
2023/08/01,12:40,0.528,0.794,0.488,0.972,0.707,0.317,0.569,0.529,�쓌,3.9,��
2023/08/01,12:50,0.530,0.795,0.487,0.973,0.708,0.317,0.569,0.530,�쓌,4.2,��
2023/08/01,13:00,0.530,0.796,0.487,0.972,0.708,0.318,0.568,0.528,���쓌,3.7,��
2023/08/01,13:10,0.528,0.794,0.488,0.974,0.708,0.317,0.569,0.529,���쓌,2.5,��
2023/08/01,13:20,0.530,0.796,0.488,0.974,0.708,0.317,0.567,0.529,���쓌,1.9,��
2023/08/01,13:30,0.530,0.796,0.488,0.973,0.709,0.318,0.569,0.529,���쓌,2.3,��
2023/08/01,13:40,0.528,0.794,0.487,0.974,0.710,0.317,0.570,0.530,���쓌,1.5,��
2023/08/01,13:50,0.530,0.795,0.487,0.975,0.707,0.317,0.571,0.529,���쓌,1.4,��
2023/08/01,14:00,0.530,0.796,0.490,0.974,0.709,0.317,0.569,0.529,�쓌,1.2,��
2023/08/01,14:10,0.529,0.795,0.488,0.974,0.710,0.317,0.570,0.528,�쓌,2.3,��
2023/08/01,14:20,0.529,0.797,0.490,0.976,0.711,0.317,0.570,0.529,�쓌,3.9,��
2023/08/01,14:30,0.531,0.796,0.490,0.977,0.712,0.317,0.570,0.529,�쓌,5.4,��
2023/08/01,14:40,0.530,0.799,0.491,0.978,0.714,0.319,0.570,0.528,��쓌,5.5,��
2023/08/01,14:50,0.531,0.799,0.491,0.977,0.713,0.318,0.569,0.530,��,4.1,��
2023/08/01,15:00,0.532,0.800,0.492,0.979,0.715,0.318,0.569,0.529,��쓌,3.8,��
2023/08/01,15:10,0.533,0.799,0.493,0.978,0.714,0.318,0.569,0.529,��,4.6,��
2023/08/01,15:20,0.533,0.800,0.491,0.977,0.714,0.319,0.569,0.529,��쓌,5.1,��
2023/08/01,15:30,0.532,0.801,0.492,0.979,0.714,0.317,0.571,0.529,��쓌,4.0,��
2023/08/01,15:40,0.531,0.804,0.492,0.978,0.712,0.318,0.570,0.530,��쓌,1.9,��
2023/08/01,15:50,0.530,0.799,0.493,0.979,0.713,0.318,0.570,0.530,��,2.5,��
2023/08/01,16:00,0.531,0.802,0.493,0.979,0.714,0.319,0.573,0.529,��,2.9,��
2023/08/01,16:10,0.533,0.801,0.490,0.979,0.712,0.320,0.571,0.529,��,2.9,��
2023/08/01,16:20,0.532,0.802,0.491,0.980,0.711,0.318,0.573,0.530,��,2.6,��
2023/08/01,16:30,0.535,0.800,0.492,0.980,0.713,0.320,0.571,0.528,��,3.1,��
2023/08/01,16:40,0.532,0.803,0.493,0.977,0.713,0.320,0.572,0.529,��,2.8,��
2023/08/01,16:50,0.533,0.802,0.493,0.981,0.715,0.320,0.571,0.532,��쓌,3.9,��
2023/08/01,17:00,0.532,0.802,0.493,0.979,0.715,0.320,0.571,0.531,��쓌,4.3,��
2023/08/01,17:10,0.532,0.802,0.492,0.981,0.714,0.321,0.571,0.530,��쓌,5.0,��
2023/08/01,17:20,0.532,0.802,0.493,0.981,0.715,0.319,0.571,0.531,��쓌,5.8,��
2023/08/01,17:30,0.532,0.804,0.493,0.981,0.713,0.319,0.572,0.531,��쓌,5.4,��
2023/08/01,17:40,0.535,0.803,0.494,0.980,0.715,0.320,0.572,0.531,��쓌,5.6,��
2023/08/01,17:50,0.534,0.803,0.492,0.981,0.714,0.320,0.571,0.530,��,6.1,��
2023/08/01,18:00,0.533,0.804,0.494,0.981,0.715,0.320,0.572,0.532,��,5.8,��
2023/08/01,18:10,0.532,0.804,0.494,0.981,0.716,0.321,0.571,0.530,��,4.5,��
2023/08/01,18:20,0.533,0.804,0.494,0.981,0.714,0.319,0.571,0.531,��,4.4,��
2023/08/01,18:30,0.532,0.804,0.494,0.982,0.715,0.320,0.569,0.531,��,4.7,��
2023/08/01,18:40,0.534,0.805,0.494,0.980,0.714,0.320,0.570,0.530,��,7.0,��
2023/08/01,18:50,0.535,0.806,0.495,0.982,0.717,0.320,0.569,0.531,��,6.2,��
2023/08/01,19:00,0.533,0.804,0.494,0.981,0.715,0.321,0.571,0.532,��,5.6,��
2023/08/01,19:10,0.532,0.804,0.492,0.983,0.714,0.322,0.570,0.531,��,5.0,��
2023/08/01,19:20,0.532,0.805,0.492,0.982,0.718,0.320,0.572,0.532,��쐼,4.7,��
2023/08/01,19:30,0.534,0.805,0.494,0.981,0.715,0.320,0.571,0.532,��쐼,4.4,��
2023/08/01,19:40,0.534,0.804,0.494,0.983,0.716,0.321,0.572,0.531,�쐼,4.0,��
2023/08/01,19:50,0.533,0.804,0.494,0.982,0.715,0.322,0.571,0.531,��쐼,3.9,��
2023/08/01,20:00,0.534,0.806,0.495,0.982,0.718,0.323,0.571,0.531,��,5.2,��
2023/08/01,20:10,0.534,0.803,0.493,0.982,0.713,0.320,0.572,0.532,��,4.3,��
2023/08/01,20:20,0.535,0.804,0.494,0.983,0.717,0.321,0.571,0.532,��쐼,4.7,��
2023/08/01,20:30,0.533,0.805,0.494,0.981,0.716,0.320,0.571,0.532,�쐼,4.6,��
2023/08/01,20:40,0.532,0.803,0.493,0.982,0.715,0.321,0.572,0.530,�쐼,4.4,��
2023/08/01,20:50,0.532,0.802,0.492,0.982,0.715,0.321,0.572,0.533,��쐼,4.0,��
2023/08/01,21:00,0.533,0.805,0.492,0.980,0.715,0.321,0.572,0.532,��,3.2,��
2023/08/01,21:10,0.533,0.806,0.494,0.983,0.714,0.320,0.570,0.531,��,3.4,��
2023/08/01,21:20,0.534,0.804,0.494,0.982,0.715,0.321,0.572,0.531,��,5.4,��
2023/08/01,21:30,0.533,0.802,0.496,0.983,0.715,0.321,0.571,0.532,��,5.2,��
2023/08/01,21:40,0.535,0.803,0.493,0.984,0.717,0.320,0.571,0.532,��쐼,5.2,��
2023/08/01,21:50,0.534,0.805,0.494,0.984,0.716,0.321,0.572,0.534,��쐼,4.5,��
2023/08/01,22:00,0.534,0.805,0.492,0.980,0.716,0.321,0.571,0.533,��쐼,5.1,��
2023/08/01,22:10,0.533,0.804,0.494,0.983,0.717,0.321,0.572,0.531,��쐼,4.2,��
2023/08/01,22:20,0.533,0.804,0.494,0.982,0.715,0.322,0.571,0.532,��쐼,2.6,��
2023/08/01,22:30,0.534,0.805,0.494,0.986,0.716,0.320,0.574,0.532,��,3.6,��
2023/08/01,22:40,0.533,0.806,0.493,0.983,0.716,0.322,0.571,0.533,��쐼,3.7,��
2023/08/01,22:50,0.532,0.806,0.494,0.984,0.717,0.319,0.572,0.532,��쐼,3.7,��
2023/08/01,23:00,0.534,0.804,0.493,0.981,0.716,0.321,0.571,0.532,�쐼,2.6,��
2023/08/01,23:10,0.534,0.805,0.495,0.984,0.716,0.320,0.571,0.532,�쐼,1.7,��
2023/08/01,23:20,0.533,0.806,0.494,0.984,0.717,0.321,0.571,0.532,��쐼,1.4,��
2023/08/01,23:30,0.535,0.804,0.494,0.983,0.718,0.321,0.572,0.533,��,0.6,��
2023/08/01,23:40,0.535,0.806,0.492,0.983,0.716,0.321,0.570,0.530,��쓌,1.1,��
2023/08/01,23:50,0.535,0.806,0.494,0.985,0.716,0.320,0.570,0.531,��,0.6,��
